Regional Weather Roundup
Issued by NWS

Home | Current Version | Previous Version | Graphics & Text | Print | Product List | Glossary Off
Versions: 1 2 3 4 5 6 7 8 9 10 11 12 13 14 15 16 17 18 19 20 21 22 23 24 25 26 27 28 29 30 31 32 33 34 35 36 37 38 39 40 41 42 43 44 45 46 47 48 49 50

000
ASUS43 KTOP 050359
RWRKS

WEATHER ROUNDUP FOR KANSAS
NATIONAL WEATHER SERVICE GOODLAND KS
1100 PM CDT TUE AUG 04 2015

NOTE:  "FAIR" INDICATES FEW OR NO CLOUDS BELOW 12,000 FEET WITH NO
SIGNIFICANT WEATHER AND/OR OBSTRUCTIONS TO VISIBILITY.

KSZ001>006-013>018-027>032-041>047-050500-
NORTHWEST KANSAS

CITY           SKY/WX    TMP DP  RH WIND       PRES   REMARKS
GOODLAND       CLEAR     66  63  90 S7        30.03R
HAYS           CLOUDY    72  61  68 E7        29.95S
HILL CITY      MOCLDY    68  66  93 CALM      29.97R
RUSSELL        CLOUDY    72  66  81 E13       29.95R
$$

KSZ061>065-074>080-084>089-050500-
SOUTHWEST KANSAS

CITY           SKY/WX    TMP DP  RH WIND       PRES   REMARKS
DODGE CITY     PTCLDY    71  68  90 SE6       29.96F
ELKHART          N/A     74  65  74 S10         N/A
GARDEN CITY    CLEAR     72  62  71 E8        29.97S
GREAT BEND     CLOUDY    75  70  83 SE9       29.95R
LIBERAL        MOCLDY    81  66  61 SE10      29.96S
$$

KSZ066>073-081>083-090>101-050500-
SOUTHEAST KANSAS

CITY           SKY/WX    TMP DP  RH WIND       PRES   REMARKS
CHANUTE        CLOUDY    72  69  90 E6        29.99S
COFFEYVILLE    PTCLDY    74  71  91 NE3       29.97F
HUTCHINSON     CLOUDY    75  69  81 E6        29.98R
NEWTON         MOCLDY    73  64  73 SE9       29.99R
PARSONS        CLOUDY    73  71  93 CALM      30.00R
WICHITA INTL   MOCLDY    77  70  79 SE15G22   29.93F
WICHITA JABRA  PTCLDY    74  70  87 E10       29.95F
$$

KSZ007>012-019>026-033>040-048>060-102>105-050500-
NORTHEAST KANSAS

CITY           SKY/WX    TMP DP  RH WIND       PRES   REMARKS
CONCORDIA      CLOUDY    67  65  93 N6        29.96R
EMPORIA        CLOUDY    71  64  78 SE10      29.98R
LAWRENCE       MOCLDY    72  69  90 E5        29.97R
MANHATTAN      RAIN      72  70  93 VRB3      29.94F
OLATHE IND     MOCLDY    71  70  96 S12       29.99R
OLATHE EXE     MOCLDY    70  69  97 S6        30.00R
SALINA         CLOUDY    73  69  87 E6        29.94F
TOPEKA BILLARD MOCLDY    72  70  93 SW5       29.97R
TOPEKA FORBES  PTCLDY    71  68  90 S8        29.97S
$$


USA.gov is the U.S. government's official web portal to all federal, state and local government web resources and services.